TimeEST,TemperatureF,Dew PointF,Humidity,Sea Level PressureIn,VisibilityMPH,Wind Direction,Wind SpeedMPH,Gust SpeedMPH,PrecipitationIn,Events,Conditions,WindDirDegrees,DateUTC
12:15 AM,19.4,17.6,93,29.77,10.0,North,5.8,-,N/A,,Overcast,360,2013-01-22 05:15:00
12:35 AM,19.4,8.6,63,29.77,10.0,North,6.9,-,N/A,,Overcast,360,2013-01-22 05:35:00
12:55 AM,19.4,12.2,74,29.77,10.0,North,5.8,-,N/A,,Overcast,360,2013-01-22 05:55:00
1:15 AM,19.4,8.6,63,29.75,10.0,North,6.9,-,N/A,,Overcast,360,2013-01-22 06:15:00
1:35 AM,19.4,17.6,93,29.76,10.0,North,6.9,-,N/A,,Overcast,360,2013-01-22 06:35:00
1:55 AM,19.4,8.6,63,29.75,10.0,North,8.1,-,N/A,,Overcast,360,2013-01-22 06:55:00
2:15 AM,19.4,14.0,80,29.77,10.0,North,5.8,-,N/A,,Overcast,360,2013-01-22 07:15:00
2:35 AM,19.4,8.6,63,29.76,10.0,North,6.9,-,N/A,,Overcast,360,2013-01-22 07:35:00
2:55 AM,19.4,12.2,74,29.75,10.0,North,8.1,-,N/A,,Overcast,360,2013-01-22 07:55:00
3:35 AM,17.6,10.4,73,29.74,10.0,North,9.2,-,N/A,,Overcast,360,2013-01-22 08:35:00
3:55 AM,17.6,6.8,63,29.74,10.0,North,10.4,-,N/A,,Overcast,360,2013-01-22 08:55:00
4:15 AM,17.6,8.6,68,29.73,10.0,North,9.2,-,N/A,,Overcast,360,2013-01-22 09:15:00
4:35 AM,17.6,6.8,63,29.73,10.0,NNW,9.2,-,N/A,,Overcast,330,2013-01-22 09:35:00
4:55 AM,17.6,8.6,68,29.73,10.0,North,10.4,-,N/A,,Overcast,360,2013-01-22 09:55:00
5:15 AM,15.8,3.2,58,29.73,10.0,NNW,13.8,-,N/A,,Mostly Cloudy,340,2013-01-22 10:15:00
5:35 AM,15.8,6.8,68,29.74,10.0,NNW,11.5,-,N/A,,Mostly Cloudy,340,2013-01-22 10:35:00
5:55 AM,15.8,1.4,53,29.74,10.0,NNW,10.4,-,N/A,,Overcast,340,2013-01-22 10:55:00
6:15 AM,15.8,3.2,58,29.75,10.0,NNW,10.4,-,N/A,,Overcast,340,2013-01-22 11:15:00
6:35 AM,15.8,3.2,58,29.76,10.0,NNW,8.1,-,N/A,,Overcast,340,2013-01-22 11:35:00
6:55 AM,14.0,3.2,62,29.76,10.0,NNW,9.2,-,N/A,,Mostly Cloudy,340,2013-01-22 11:55:00
7:15 AM,14.0,3.2,62,29.76,10.0,NNW,10.4,-,N/A,,Mostly Cloudy,340,2013-01-22 12:15:00
7:35 AM,14.0,1.4,57,29.77,10.0,NNW,9.2,-,N/A,,Mostly Cloudy,340,2013-01-22 12:35:00
7:55 AM,14.0,5.0,67,29.78,10.0,NNW,9.2,-,N/A,,Overcast,340,2013-01-22 12:55:00
8:35 AM,14.0,6.8,73,29.79,10.0,NW,8.1,-,N/A,,Overcast,320,2013-01-22 13:35:00
8:55 AM,15.8,3.2,58,29.80,10.0,North,9.2,-,N/A,,Mostly Cloudy,360,2013-01-22 13:55:00
9:15 AM,15.8,5.0,62,29.80,10.0,North,9.2,-,N/A,,Partly Cloudy,360,2013-01-22 14:15:00
9:35 AM,15.8,3.2,58,29.81,10.0,North,6.9,-,N/A,,Partly Cloudy,10,2013-01-22 14:35:00
9:55 AM,17.6,5.0,58,29.81,10.0,North,8.1,-,N/A,,Partly Cloudy,10,2013-01-22 14:55:00
10:15 AM,17.6,3.2,53,29.81,10.0,North,6.9,-,N/A,,Clear,10,2013-01-22 15:15:00
10:35 AM,17.6,5.0,58,29.81,10.0,NNE,5.8,-,N/A,,Clear,20,2013-01-22 15:35:00
11:15 AM,19.4,8.6,63,29.79,10.0,NW,5.8,-,N/A,,Scattered Clouds,310,2013-01-22 16:15:00
11:35 AM,21.2,-2.2,36,29.78,10.0,WNW,12.7,19.6,N/A,,Scattered Clouds,300,2013-01-22 16:35:00
11:55 AM,23.0,-2.2,33,29.78,10.0,West,15.0,27.6,N/A,,Clear,280,2013-01-22 16:55:00
12:15 PM,23.0,-2.2,33,29.78,10.0,West,17.3,28.8,N/A,,Partly Cloudy,280,2013-01-22 17:15:00
12:35 PM,21.2,-2.2,36,29.78,10.0,WNW,15.0,27.6,N/A,,Clear,290,2013-01-22 17:35:00
12:55 PM,21.2,-0.4,39,29.78,10.0,WNW,12.7,24.2,N/A,,Clear,300,2013-01-22 17:55:00
1:15 PM,21.2,-2.2,36,29.79,10.0,WNW,12.7,25.3,N/A,,Partly Cloudy,300,2013-01-22 18:15:00
1:35 PM,21.2,-0.4,39,29.79,10.0,West,11.5,24.2,N/A,,Mostly Cloudy,280,2013-01-22 18:35:00
1:55 PM,21.2,-2.2,36,29.80,10.0,NW,15.0,24.2,N/A,,Mostly Cloudy,310,2013-01-22 18:55:00
2:15 PM,21.2,-0.4,39,29.81,10.0,WNW,13.8,18.4,N/A,,Mostly Cloudy,300,2013-01-22 19:15:00
2:35 PM,19.4,-4.0,36,29.82,10.0,NW,16.1,24.2,N/A,,Overcast,310,2013-01-22 19:35:00
2:55 PM,19.4,-0.4,42,29.83,10.0,WNW,12.7,18.4,N/A,,Mostly Cloudy,290,2013-01-22 19:55:00
3:15 PM,19.4,-0.4,42,29.84,10.0,West,15.0,20.7,N/A,,Clear,280,2013-01-22 20:15:00
3:35 PM,19.4,-2.2,39,29.84,10.0,WNW,17.3,25.3,N/A,,Clear,290,2013-01-22 20:35:00
3:55 PM,19.4,-0.4,42,29.86,10.0,NW,11.5,-,N/A,,Clear,310,2013-01-22 20:55:00
4:15 PM,17.6,-0.4,45,29.87,10.0,WNW,10.4,-,N/A,,Partly Cloudy,290,2013-01-22 21:15:00
4:35 PM,17.6,1.4,49,29.88,10.0,WNW,6.9,-,N/A,,Clear,300,2013-01-22 21:35:00
4:55 PM,17.6,-0.4,45,29.89,10.0,WNW,6.9,-,N/A,,Partly Cloudy,300,2013-01-22 21:55:00
5:15 PM,17.6,1.4,49,29.90,10.0,WNW,8.1,-,N/A,,Mostly Cloudy,300,2013-01-22 22:15:00
5:35 PM,17.6,-2.2,42,29.91,10.0,Calm,Calm,-,N/A,,Mostly Cloudy,0,2013-01-22 22:35:00
5:55 PM,15.8,-0.4,49,29.92,10.0,WNW,5.8,-,N/A,,Mostly Cloudy,290,2013-01-22 22:55:00
6:15 PM,15.8,-0.4,49,29.92,10.0,West,3.5,-,N/A,,Mostly Cloudy,270,2013-01-22 23:15:00
6:35 PM,15.8,1.4,53,29.94,10.0,West,6.9,-,N/A,,Mostly Cloudy,280,2013-01-22 23:35:00
6:55 PM,15.8,6.8,68,29.95,3.0,WNW,6.9,18.4,N/A,,Overcast,290,2013-01-22 23:55:00
7:15 PM,14.0,8.6,79,29.96,10.0,WNW,8.1,-,N/A,,Mostly Cloudy,300,2013-01-23 00:15:00
7:35 PM,12.2,8.6,85,29.97,1.8,NNW,8.1,16.1,N/A,,Overcast,340,2013-01-23 00:35:00
7:55 PM,12.2,3.2,67,29.97,10.0,NNW,3.5,-,N/A,,Mostly Cloudy,330,2013-01-23 00:55:00
8:15 PM,10.4,6.8,85,29.98,10.0,West,4.6,-,N/A,,Mostly Cloudy,260,2013-01-23 01:15:00
8:35 PM,10.4,1.4,67,29.98,10.0,West,6.9,-,N/A,,Scattered Clouds,270,2013-01-23 01:35:00
8:55 PM,10.4,-0.4,62,29.98,10.0,West,5.8,-,N/A,,Clear,270,2013-01-23 01:55:00
9:15 PM,10.4,-2.2,57,29.98,10.0,West,5.8,-,N/A,,Clear,270,2013-01-23 02:15:00
9:35 PM,8.6,-0.4,67,29.99,10.0,West,5.8,-,N/A,,Clear,280,2013-01-23 02:35:00
9:55 PM,8.6,-2.2,62,30.00,10.0,West,3.5,-,N/A,,Clear,270,2013-01-23 02:55:00
10:15 PM,5.0,-2.2,72,30.00,10.0,West,3.5,-,N/A,,Clear,270,2013-01-23 03:15:00
10:55 PM,3.2,-5.8,66,30.02,10.0,West,3.5,-,N/A,,Clear,270,2013-01-23 03:55:00
11:15 PM,6.8,-0.4,72,30.02,10.0,West,4.6,-,N/A,,Clear,280,2013-01-23 04:15:00
11:35 PM,5.0,-7.6,56,30.02,10.0,West,4.6,-,N/A,,Clear,280,2013-01-23 04:35:00
11:55 PM,1.4,-4.0,78,30.01,10.0,Calm,Calm,-,N/A,,Clear,0,2013-01-23 04:55:00